FIN94W EFHK-EDDH

Flight info

Callsign FIN94W
Flight time 1h 30m
Altitude 40000
Route NUNTO Y369 REKDO DCT KOSKA DCT GIMRU T503 MICOS N850 BOGMU BOGMU3S
Aircraft A359/H-SDE2E3GHIJ3J4J5LM1ORWXY/LB1D1

Departure

Time 2026-04-23 17:46
Airport Helsinki Vantaa Airport (EFHK)

Arrival

Time 2026-04-23 19:16
Airport Hamburg Helmut Schmidt Airport (EDDH)
Time Latitude Longitude Altitude Speed Heading
2026-04-23 17:03 60.31346 24.96345 173 ft 0 kts 47°
2026-04-23 17:33 60.31339 24.96330 173 ft 4 kts 45°
2026-04-23 17:34 60.31319 24.96294 173 ft 4 kts 33°
2026-04-23 17:34 60.31295 24.96271 173 ft 4 kts
2026-04-23 17:34 60.31273 24.96277 173 ft 0 kts 317°
2026-04-23 17:35 60.31272 24.96276 173 ft 0 kts 317°
2026-04-23 17:38 60.31281 24.96261 173 ft 5 kts 318°
2026-04-23 17:38 60.31302 24.96168 173 ft 9 kts 261°
2026-04-23 17:38 60.31247 24.96021 173 ft 16 kts 228°
2026-04-23 17:38 60.31228 24.95865 173 ft 12 kts 281°
2026-04-23 17:39 60.31208 24.95696 173 ft 14 kts 231°
2026-04-23 17:39 60.31130 24.95554 173 ft 17 kts 216°
2026-04-23 17:39 60.31043 24.95377 173 ft 18 kts 227°
2026-04-23 17:39 60.31001 24.95221 173 ft 11 kts 278°
2026-04-23 17:40 60.31045 24.95106 175 ft 10 kts 317°
2026-04-23 17:40 60.31082 24.95044 175 ft 8 kts 323°
2026-04-23 17:40 60.31098 24.95022 174 ft 0 kts 326°
2026-04-23 17:41 60.31100 24.95019 174 ft 1 kts 326°
2026-04-23 17:41 60.31179 24.94903 171 ft 13 kts 318°
2026-04-23 17:41 60.31254 24.94765 169 ft 16 kts 317°
2026-04-23 17:42 60.31228 24.94414 165 ft 18 kts 227°
2026-04-23 17:42 60.31137 24.94214 164 ft 21 kts 227°
2026-04-23 17:42 60.31049 24.94015 164 ft 16 kts 234°
2026-04-23 17:43 60.31042 24.93858 165 ft 5 kts 291°
2026-04-23 17:43 60.31043 24.93854 165 ft 0 kts 292°
2026-04-23 17:44 60.31050 24.93824 165 ft 7 kts 296°
2026-04-23 17:44 60.31145 24.93725 164 ft 21 kts
2026-04-23 17:44 60.31210 24.93816 165 ft 0 kts 47°
2026-04-23 17:45 60.31269 24.93944 165 ft 26 kts 47°
2026-04-23 17:45 60.31560 24.94582 171 ft 97 kts 47°
2026-04-23 17:46 60.32894 24.97592 853 ft 157 kts 48°
2026-04-23 17:46 60.33587 24.99282 1676 ft 161 kts 45°
2026-04-23 17:46 60.34365 25.01054 2141 ft 179 kts 43°
2026-04-23 17:47 60.35301 25.02998 2470 ft 208 kts 42°
2026-04-23 17:47 60.36370 25.05247 2889 ft 233 kts 43°
2026-04-23 17:47 60.38659 25.10237 4507 ft 247 kts 43°
2026-04-23 17:48 60.40032 25.12294 5357 ft 247 kts 21°
2026-04-23 17:48 60.41713 25.12945 6280 ft 248 kts
2026-04-23 17:48 60.43447 25.13021 7221 ft 250 kts
2026-04-23 17:48 60.45173 25.13042 8333 ft 246 kts
2026-04-23 17:49 60.46880 25.12939 9456 ft 244 kts 353°
2026-04-23 17:49 60.48503 25.11979 10459 ft 245 kts 336°
2026-04-23 17:49 60.49886 25.09909 11344 ft 254 kts 321°
2026-04-23 17:49 60.51112 25.07119 11779 ft 278 kts 311°
2026-04-23 17:50 60.51980 25.03393 12191 ft 311 kts 290°
2026-04-23 17:50 60.51168 24.94186 13671 ft 356 kts 253°
2026-04-23 17:50 60.49978 24.89683 14364 ft 368 kts 247°
2026-04-23 17:51 60.48600 24.85237 15040 ft 376 kts 245°
2026-04-23 17:51 60.47160 24.80760 15730 ft 381 kts 245°
2026-04-23 17:51 60.44305 24.71565 17192 ft 390 kts 248°
2026-04-23 17:52 60.42904 24.66831 17965 ft 394 kts 249°
2026-04-23 17:52 60.40114 24.57154 19342 ft 402 kts 250°
2026-04-23 17:52 60.38706 24.52232 20032 ft 407 kts 250°
2026-04-23 17:53 60.35836 24.42229 21403 ft 416 kts 250°
2026-04-23 17:53 60.34375 24.37161 22088 ft 420 kts 250°
2026-04-23 17:53 60.32912 24.32108 22759 ft 424 kts 250°
2026-04-23 17:54 60.31412 24.26942 23426 ft 429 kts 250°
2026-04-23 17:54 60.29892 24.21725 23920 ft 434 kts 250°
2026-04-23 17:54 60.26800 24.11155 24956 ft 442 kts 250°
2026-04-23 17:55 60.23644 24.00408 26016 ft 450 kts 250°
2026-04-23 17:55 60.22041 23.94970 26551 ft 454 kts 250°
2026-04-23 17:55 60.20421 23.89484 27076 ft 458 kts 250°
2026-04-23 17:56 60.18786 23.83959 27602 ft 462 kts 250°
2026-04-23 17:56 60.15460 23.72771 28633 ft 470 kts 250°
2026-04-23 17:56 60.13774 23.67119 29123 ft 474 kts 250°
2026-04-23 17:57 60.12069 23.61417 29598 ft 478 kts 250°
2026-04-23 17:57 60.10351 23.55687 30018 ft 482 kts 250°
2026-04-23 17:57 60.06864 23.44105 30844 ft 488 kts 250°
2026-04-23 17:58 60.05103 23.38281 31260 ft 491 kts 249°
2026-04-23 17:58 60.03329 23.32427 31651 ft 493 kts 249°
2026-04-23 17:58 60.01543 23.26549 32051 ft 496 kts 249°
2026-04-23 17:58 59.99743 23.20638 32433 ft 499 kts 249°
2026-04-23 17:59 59.97935 23.14708 32801 ft 501 kts 249°
2026-04-23 17:59 59.96113 23.08751 33155 ft 504 kts 249°
2026-04-23 17:59 59.94283 23.02785 33463 ft 506 kts 248°
2026-04-23 17:59 59.92440 22.96792 33837 ft 507 kts 248°
2026-04-23 18:00 59.90587 22.90785 34116 ft 509 kts 248°
2026-04-23 18:00 59.88726 22.84769 34409 ft 511 kts 248°
2026-04-23 18:00 59.86859 22.78754 34742 ft 511 kts 248°
2026-04-23 18:00 59.84992 22.72755 35141 ft 509 kts 247°
2026-04-23 18:01 59.83127 22.66776 35505 ft 508 kts 247°
2026-04-23 18:01 59.81260 22.60803 35855 ft 508 kts 247°
2026-04-23 18:01 59.79396 22.54851 36191 ft 508 kts 246°
2026-04-23 18:01 59.77528 22.48902 36516 ft 507 kts 246°
2026-04-23 18:02 59.75659 22.42961 36852 ft 507 kts 246°
2026-04-23 18:02 59.73794 22.37048 37168 ft 507 kts 246°
2026-04-23 18:02 59.71921 22.31129 37486 ft 506 kts 246°
2026-04-23 18:02 59.70075 22.25308 37801 ft 506 kts 246°
2026-04-23 18:03 59.68203 22.19418 38113 ft 505 kts 245°
2026-04-23 18:03 59.66331 22.13544 38414 ft 505 kts 245°
2026-04-23 18:03 59.64456 22.07677 38676 ft 504 kts 245°
2026-04-23 18:03 59.62581 22.01823 38845 ft 504 kts 245°
2026-04-23 18:04 59.60706 21.95983 39064 ft 503 kts 245°
2026-04-23 18:04 59.58827 21.90147 39254 ft 503 kts 245°
2026-04-23 18:04 59.56947 21.84319 39442 ft 503 kts 245°
2026-04-23 18:04 59.55065 21.78504 39630 ft 504 kts 244°
2026-04-23 18:05 59.53179 21.72687 39813 ft 504 kts 244°
2026-04-23 18:05 59.51287 21.66868 39926 ft 505 kts 244°
2026-04-23 18:05 59.49394 21.61058 39952 ft 504 kts 244°
2026-04-23 18:06 59.45598 21.49458 39952 ft 504 kts 244°
2026-04-23 18:06 59.41791 21.37882 39960 ft 504 kts 244°
2026-04-23 18:07 59.37971 21.26321 39960 ft 505 kts 244°
2026-04-23 18:07 59.34143 21.14791 39963 ft 505 kts 244°
2026-04-23 18:08 59.30952 21.05226 39926 ft 504 kts 244°
2026-04-23 18:08 59.26463 20.91838 39974 ft 503 kts 244°
2026-04-23 18:09 59.22616 20.80421 39971 ft 503 kts 244°
2026-04-23 18:09 59.18762 20.69034 39978 ft 503 kts 244°
2026-04-23 18:10 59.14676 20.57903 39978 ft 508 kts 238°
2026-04-23 18:10 59.10212 20.47199 39979 ft 510 kts 237°
2026-04-23 18:11 59.05735 20.36504 39988 ft 510 kts 238°
2026-04-23 18:11 59.01292 20.25769 39988 ft 510 kts 238°
2026-04-23 18:12 58.96844 20.15047 39989 ft 510 kts 238°
2026-04-23 18:12 58.92416 20.04434 39958 ft 510 kts 238°
2026-04-23 18:13 58.87949 19.93782 39987 ft 510 kts 238°
2026-04-23 18:13 58.83468 19.83145 40000 ft 510 kts 237°
2026-04-23 18:14 58.78975 19.72531 40015 ft 511 kts 237°
2026-04-23 18:14 58.74473 19.61944 40001 ft 511 kts 237°
2026-04-23 18:15 58.69963 19.51385 40004 ft 511 kts 237°
2026-04-23 18:15 58.65448 19.40860 40007 ft 510 kts 237°
2026-04-23 18:16 58.60928 19.30372 40008 ft 510 kts 237°
2026-04-23 18:16 58.56398 19.19906 40009 ft 510 kts 237°
2026-04-23 18:17 58.49585 19.04255 40011 ft 510 kts 237°
2026-04-23 18:17 58.45038 18.93869 40008 ft 508 kts 236°
2026-04-23 18:18 58.40506 18.83565 40018 ft 506 kts 236°
2026-04-23 18:18 58.35974 18.73300 40018 ft 506 kts 236°
2026-04-23 18:19 58.31433 18.63059 40023 ft 506 kts 236°
2026-04-23 18:19 58.26882 18.52843 40023 ft 506 kts 236°
2026-04-23 18:20 58.22325 18.42658 40028 ft 505 kts 236°
2026-04-23 18:20 58.17804 18.32600 40027 ft 504 kts 236°
2026-04-23 18:21 58.13218 18.22437 40031 ft 504 kts 236°
2026-04-23 18:21 58.08683 18.12430 40031 ft 504 kts 236°
2026-04-23 18:22 58.04111 18.02385 40039 ft 504 kts 236°
2026-04-23 18:22 57.99533 17.92372 40039 ft 503 kts 236°
2026-04-23 18:23 57.92670 17.77438 40040 ft 503 kts 236°
2026-04-23 18:24 57.85786 17.62553 40042 ft 503 kts 235°
2026-04-23 18:25 57.78888 17.47735 40043 ft 502 kts 235°
2026-04-23 18:25 57.74283 17.37897 40046 ft 502 kts 235°
2026-04-23 18:26 57.69676 17.28093 40046 ft 502 kts 235°
2026-04-23 18:26 57.65063 17.18315 40045 ft 502 kts 235°
2026-04-23 18:27 57.60439 17.08555 40043 ft 501 kts 235°
2026-04-23 18:27 57.56600 17.00487 40047 ft 500 kts 235°
2026-04-23 18:28 57.51978 16.90805 40052 ft 500 kts 234°
2026-04-23 18:28 57.47349 16.81149 40052 ft 500 kts 234°
2026-04-23 18:29 57.42713 16.71519 40057 ft 500 kts 234°
2026-04-23 18:29 57.38075 16.61925 40059 ft 500 kts 234°
2026-04-23 18:30 57.33422 16.52336 40061 ft 501 kts 234°
2026-04-23 18:30 57.28755 16.42761 40063 ft 501 kts 234°
2026-04-23 18:31 57.24077 16.33202 40062 ft 501 kts 234°
2026-04-23 18:31 57.19393 16.23672 40055 ft 501 kts 234°
2026-04-23 18:32 57.14709 16.14179 40039 ft 498 kts 233°
2026-04-23 18:32 57.10062 16.04808 40062 ft 494 kts 233°
2026-04-23 18:33 57.05430 15.95492 40062 ft 493 kts 233°
2026-04-23 18:33 57.00793 15.86202 40061 ft 493 kts 233°
2026-04-23 18:34 56.96149 15.76936 40065 ft 494 kts 233°
2026-04-23 18:34 56.91496 15.67691 40058 ft 493 kts 233°
2026-04-23 18:35 56.86849 15.58499 40067 ft 492 kts 233°
2026-04-23 18:35 56.82194 15.49322 40068 ft 492 kts 233°
2026-04-23 18:36 56.77568 15.40238 40064 ft 492 kts 233°
2026-04-23 18:36 56.72901 15.31110 40042 ft 492 kts 233°
2026-04-23 18:37 56.68244 15.22039 40069 ft 489 kts 232°
2026-04-23 18:37 56.63594 15.13017 40067 ft 489 kts 232°
2026-04-23 18:38 56.58941 15.04021 40068 ft 489 kts 232°
2026-04-23 18:38 56.54280 14.95043 40069 ft 489 kts 232°
2026-04-23 18:39 56.49611 14.86086 40073 ft 489 kts 232°
2026-04-23 18:39 56.44932 14.77145 40070 ft 490 kts 232°
2026-04-23 18:40 56.40236 14.68203 40071 ft 491 kts 232°
2026-04-23 18:40 56.35527 14.59275 40075 ft 491 kts 232°
2026-04-23 18:41 56.30812 14.50368 40078 ft 491 kts 232°
2026-04-23 18:41 56.26095 14.41493 40066 ft 490 kts 231°
2026-04-23 18:42 56.21394 14.32683 40078 ft 488 kts 231°
2026-04-23 18:42 56.16681 14.23880 40081 ft 488 kts 231°
2026-04-23 18:43 56.11971 14.15111 40079 ft 488 kts 231°
2026-04-23 18:43 56.07537 14.06892 40079 ft 488 kts 231°
2026-04-23 18:44 56.02810 13.98161 40087 ft 488 kts 231°
2026-04-23 18:44 55.98074 13.89447 40097 ft 489 kts 231°
2026-04-23 18:45 55.93333 13.80755 40101 ft 489 kts 231°
2026-04-23 18:45 55.88580 13.72075 40104 ft 489 kts 231°
2026-04-23 18:46 55.83825 13.63422 40081 ft 489 kts 230°
2026-04-23 18:46 55.79074 13.54807 40109 ft 487 kts 230°
2026-04-23 18:47 55.74366 13.46304 40111 ft 486 kts 230°
2026-04-23 18:47 55.69613 13.37751 40111 ft 486 kts 230°
2026-04-23 18:48 55.64859 13.29227 40116 ft 486 kts 230°
2026-04-23 18:48 55.60097 13.20720 40116 ft 486 kts 230°
2026-04-23 18:49 55.55332 13.12238 40116 ft 487 kts 229°
2026-04-23 18:49 55.50555 13.03766 40121 ft 487 kts 229°
2026-04-23 18:50 55.46551 12.96689 40119 ft 487 kts 229°
2026-04-23 18:50 55.40989 12.86895 40124 ft 487 kts 229°
2026-04-23 18:51 55.36199 12.78491 40122 ft 485 kts 229°
2026-04-23 18:51 55.31424 12.70148 40127 ft 484 kts 229°
2026-04-23 18:52 55.26646 12.61825 40121 ft 484 kts 229°
2026-04-23 18:52 55.21866 12.53530 39867 ft 484 kts 229°
2026-04-23 18:52 55.19462 12.49367 39620 ft 486 kts 229°
2026-04-23 18:53 55.17057 12.45213 39376 ft 486 kts 229°
2026-04-23 18:53 55.14649 12.41061 39143 ft 486 kts 229°
2026-04-23 18:53 55.12234 12.36904 38908 ft 487 kts 229°
2026-04-23 18:53 55.09823 12.32761 38661 ft 487 kts 229°
2026-04-23 18:54 55.07403 12.28610 38374 ft 487 kts 229°
2026-04-23 18:54 55.04984 12.24467 38099 ft 488 kts 229°
2026-04-23 18:54 55.02557 12.20319 37819 ft 489 kts 229°
2026-04-23 18:54 55.00123 12.16166 37461 ft 489 kts 229°
2026-04-23 18:55 54.97696 12.12034 36831 ft 487 kts 229°
2026-04-23 18:55 54.95268 12.07907 36112 ft 488 kts 229°
2026-04-23 18:55 54.92832 12.03772 35356 ft 490 kts 228°
2026-04-23 18:55 54.90398 11.99650 34760 ft 487 kts 228°
2026-04-23 18:56 54.88794 11.96937 34400 ft 485 kts 228°
2026-04-23 18:56 54.85569 11.91497 33584 ft 482 kts 228°
2026-04-23 18:56 54.83172 11.87462 33023 ft 478 kts 228°
2026-04-23 18:56 54.80793 11.83461 32456 ft 474 kts 228°
2026-04-23 18:57 54.78433 11.79499 31919 ft 471 kts 228°
2026-04-23 18:57 54.76084 11.75563 31369 ft 468 kts 228°
2026-04-23 18:57 54.73754 11.71664 30821 ft 465 kts 228°
2026-04-23 18:57 54.71433 11.67786 30280 ft 462 kts 227°
2026-04-23 18:58 54.69158 11.63989 29675 ft 459 kts 227°
2026-04-23 18:58 54.66871 11.60181 29130 ft 455 kts 227°
2026-04-23 18:58 54.64599 11.56407 28590 ft 451 kts 227°
2026-04-23 18:58 54.62351 11.52678 28053 ft 447 kts 227°
2026-04-23 18:59 54.60113 11.48970 27521 ft 444 kts 227°
2026-04-23 18:59 54.57899 11.45306 26994 ft 440 kts 227°
2026-04-23 18:59 54.55697 11.41662 26496 ft 436 kts 228°
2026-04-23 18:59 54.53657 11.37899 26126 ft 427 kts 232°
2026-04-23 19:00 54.51691 11.34053 25485 ft 427 kts 233°
2026-04-23 19:00 54.49746 11.30200 24922 ft 425 kts 233°
2026-04-23 19:00 54.47815 11.26367 24378 ft 423 kts 233°
2026-04-23 19:00 54.45892 11.22548 23833 ft 421 kts 233°
2026-04-23 19:01 54.43980 11.18752 23226 ft 419 kts 233°
2026-04-23 19:01 54.42082 11.14987 22692 ft 415 kts 233°
2026-04-23 19:01 54.40202 11.11262 22135 ft 411 kts 233°
2026-04-23 19:01 54.38340 11.07577 21605 ft 407 kts 233°
2026-04-23 19:02 54.37115 11.05156 21247 ft 405 kts 233°
2026-04-23 19:02 54.34656 11.00299 20541 ft 401 kts 232°
2026-04-23 19:02 54.32833 10.96707 19986 ft 398 kts 232°
2026-04-23 19:02 54.31024 10.93147 19461 ft 395 kts 232°
2026-04-23 19:03 54.29222 10.89605 18943 ft 393 kts 232°
2026-04-23 19:03 54.27431 10.86090 18396 ft 391 kts 232°
2026-04-23 19:03 54.25648 10.82595 17832 ft 388 kts 232°
2026-04-23 19:03 54.23879 10.79136 17290 ft 384 kts 232°
2026-04-23 19:04 54.22130 10.75720 16773 ft 380 kts 232°
2026-04-23 19:04 54.20392 10.72331 16240 ft 377 kts 232°
2026-04-23 19:04 54.18670 10.68975 15733 ft 374 kts 232°
2026-04-23 19:04 54.16963 10.65654 15219 ft 371 kts 232°
2026-04-23 19:05 54.15269 10.62361 14729 ft 368 kts 232°
2026-04-23 19:05 54.13584 10.59090 14210 ft 366 kts 232°
2026-04-23 19:05 54.11911 10.55848 13683 ft 363 kts 232°
2026-04-23 19:05 54.10250 10.52635 13149 ft 359 kts 232°
2026-04-23 19:06 54.08629 10.49504 12663 ft 355 kts 232°
2026-04-23 19:06 54.07008 10.46374 12162 ft 351 kts 232°
2026-04-23 19:06 54.05389 10.43255 11857 ft 341 kts 232°
2026-04-23 19:06 54.03870 10.40242 11629 ft 329 kts 234°
2026-04-23 19:07 54.02437 10.37364 11442 ft 318 kts 234°
2026-04-23 19:07 54.01030 10.34551 11254 ft 307 kts 234°
2026-04-23 19:07 53.99668 10.31845 11092 ft 296 kts 234°
2026-04-23 19:07 53.98348 10.29243 10947 ft 286 kts 234°
2026-04-23 19:08 53.96999 10.26774 10749 ft 280 kts 225°
2026-04-23 19:08 53.95325 10.25251 10393 ft 279 kts 198°
2026-04-23 19:08 53.93385 10.24987 9788 ft 282 kts 178°
2026-04-23 19:08 53.91419 10.25313 9025 ft 286 kts 174°
2026-04-23 19:09 53.89429 10.25736 8268 ft 290 kts 174°
2026-04-23 19:09 53.87421 10.26177 7539 ft 292 kts 174°
2026-04-23 19:09 53.85402 10.26631 6829 ft 293 kts 174°
2026-04-23 19:09 53.83392 10.27093 6198 ft 290 kts 174°
2026-04-23 19:10 53.81406 10.27553 5566 ft 286 kts 174°
2026-04-23 19:10 53.79443 10.28006 4947 ft 283 kts 174°
2026-04-23 19:10 53.77502 10.28439 4294 ft 280 kts 174°
2026-04-23 19:10 53.75585 10.28523 3647 ft 272 kts 194°
2026-04-23 19:11 53.73924 10.27303 3172 ft 252 kts 225°
2026-04-23 19:11 53.72964 10.25127 2991 ft 214 kts 259°
2026-04-23 19:11 53.72681 10.22883 2984 ft 181 kts 272°
2026-04-23 19:11 53.72550 10.20868 2999 ft 168 kts 274°
2026-04-23 19:12 53.72471 10.19537 2836 ft 169 kts 274°
2026-04-23 19:12 53.72027 10.16982 2500 ft 182 kts 245°
2026-04-23 19:12 53.71187 10.15341 2419 ft 184 kts 236°
2026-04-23 19:12 53.70356 10.13739 2203 ft 179 kts 242°
2026-04-23 19:13 53.69587 10.12105 1941 ft 179 kts 240°
2026-04-23 19:13 53.68807 10.10533 1694 ft 168 kts 239°
2026-04-23 19:13 53.68084 10.09075 1462 ft 156 kts 241°
2026-04-23 19:13 53.67425 10.07729 1256 ft 143 kts 240°
2026-04-23 19:14 53.66816 10.06480 1038 ft 133 kts 240°
2026-04-23 19:14 53.66236 10.05281 849 ft 132 kts 240°
2026-04-23 19:14 53.65663 10.04091 685 ft 129 kts 238°
2026-04-23 19:14 53.65092 10.02963 528 ft 125 kts 236°
2026-04-23 19:15 53.64534 10.01866 375 ft 121 kts 237°
2026-04-23 19:15 53.64184 10.01133 266 ft 122 kts 236°
2026-04-23 19:15 53.63627 10.00039 110 ft 124 kts 237°
2026-04-23 19:15 53.63115 9.98976 49 ft 103 kts 230°
2026-04-23 19:16 53.62729 9.98200 49 ft 70 kts 230°
2026-04-23 19:16 53.62491 9.97721 48 ft 37 kts 230°
2026-04-23 19:16 53.62350 9.97441 47 ft 21 kts 227°
2026-04-23 19:17 53.62185 9.97570 53 ft 17 kts 76°
2026-04-23 19:17 53.62258 9.97745 50 ft 20 kts 51°
2026-04-23 19:17 53.62350 9.97935 50 ft 22 kts 51°
2026-04-23 19:17 53.62463 9.98131 49 ft 24 kts 39°
2026-04-23 19:18 53.62586 9.98343 50 ft 27 kts 50°
2026-04-23 19:18 53.62710 9.98593 49 ft 29 kts 50°
2026-04-23 19:18 53.62827 9.98829 48 ft 19 kts 50°
2026-04-23 19:18 53.62911 9.98996 49 ft 18 kts 50°
2026-04-23 19:19 53.63040 9.99261 49 ft 14 kts 52°
2026-04-23 19:19 53.63078 9.99349 56 ft 0 kts 55°
2026-04-23 19:21 53.63108 9.99424 48 ft 20 kts 56°
2026-04-23 19:22 53.63205 9.99634 51 ft 21 kts 51°
2026-04-23 19:22 53.63219 9.99663 56 ft 0 kts 48°
2026-04-23 19:22 53.63236 9.99694 48 ft 10 kts 47°
2026-04-23 19:23 53.63302 9.99810 50 ft 15 kts 49°
2026-04-23 19:23 53.63369 9.99940 50 ft 14 kts 53°
2026-04-23 19:23 53.63420 10.00055 50 ft 8 kts 60°
2026-04-23 19:24 53.63445 10.00219 50 ft 7 kts 82°
2026-04-23 19:24 53.63448 10.00278 52 ft 2 kts 86°
2026-04-23 19:24 53.63448 10.00288 57 ft 0 kts 87°